Time,TemperatureF,DewpointF,PressureIn,WindDirection,WindDirectionDegrees,WindSpeedMPH,WindSpeedGustMPH,Humidity,HourlyPrecipIn,Conditions,Clouds,dailyrainin,SoftwareType,DateUTC
2013-05-04 00:01:00,40.4,40.4,30.37,SE,129,2.5,2.5,100,0.00,,CLR,0.00,VWS V14.01,2013-05-04 04:01:00,
2013-05-04 00:03:00,40.3,40.3,30.36,SE,129,2.5,2.5,100,0.00,,CLR,0.00,VWS V14.01,2013-05-04 04:03:00,
2013-05-04 00:09:00,40.1,40.1,30.37,SE,129,2.5,2.5,100,0.00,,CLR,0.00,VWS V14.01,2013-05-04 04:09:00,
2013-05-04 00:11:00,40.1,40.1,30.37,SE,129,2.5,2.5,100,0.00,,CLR,0.00,VWS V14.01,2013-05-04 04:11:00,
2013-05-04 00:13:00,40.2,40.2,30.36,SE,129,2.5,2.5,100,0.00,,CLR,0.00,VWS V14.01,2013-05-04 04:13:00,
2013-05-04 00:19:00,40.2,40.2,30.36,SE,129,2.5,2.5,100,0.00,,CLR,0.00,VWS V14.01,2013-05-04 04:19:00,
2013-05-04 00:25:00,40.2,40.2,30.36,SE,129,2.5,2.5,100,0.00,,CLR,0.00,VWS V14.01,2013-05-04 04:25:00,
2013-05-04 00:31:00,40.1,40.1,30.36,SE,129,2.5,2.5,100,0.00,,CLR,0.00,VWS V14.01,2013-05-04 04:31:00,
2013-05-04 00:37:00,40.1,40.1,30.36,SE,129,2.5,2.5,100,0.00,,CLR,0.00,VWS V14.01,2013-05-04 04:37:00,
2013-05-04 00:43:00,40.2,40.2,30.36,SE,129,2.5,2.5,100,0.00,,CLR,0.00,VWS V14.01,2013-05-04 04:43:00,
2013-05-04 00:49:00,40.1,40.1,30.36,SE,129,2.5,2.5,100,0.00,,CLR,0.00,VWS V14.01,2013-05-04 04:49:00,
2013-05-04 00:55:00,39.7,39.7,30.36,SE,129,2.5,2.5,100,0.00,,CLR,0.00,VWS V14.01,2013-05-04 04:55:00,
2013-05-04 01:01:00,39.9,39.9,30.36,SE,129,2.5,2.5,100,0.00,,CLR,0.00,VWS V14.01,2013-05-04 05:01:00,
2013-05-04 01:07:00,39.6,39.6,30.36,SE,129,2.5,2.5,100,0.00,,CLR,0.00,VWS V14.01,2013-05-04 05:07:00,
2013-05-04 01:13:00,40.1,40.1,30.36,SE,129,2.5,2.5,100,0.00,,CLR,0.00,VWS V14.01,2013-05-04 05:13:00,
2013-05-04 01:19:00,39.9,39.9,30.36,SE,129,2.5,2.5,100,0.00,,CLR,0.00,VWS V14.01,2013-05-04 05:19:00,
2013-05-04 01:25:00,39.7,39.7,30.36,SE,129,2.5,2.5,100,0.00,,CLR,0.00,VWS V14.01,2013-05-04 05:25:00,
2013-05-04 01:31:00,39.9,39.9,30.36,SE,129,2.5,2.5,100,0.00,,CLR,0.00,VWS V14.01,2013-05-04 05:31:00,
2013-05-04 01:37:00,39.8,39.8,30.35,SE,129,2.5,2.5,100,0.00,,CLR,0.00,VWS V14.01,2013-05-04 05:37:00,
2013-05-04 01:43:00,39.6,39.6,30.35,SE,129,2.5,2.5,100,0.00,,CLR,0.00,VWS V14.01,2013-05-04 05:43:00,
2013-05-04 01:49:00,39.7,39.7,30.35,SE,129,2.5,2.5,100,0.00,,CLR,0.00,VWS V14.01,2013-05-04 05:49:00,
2013-05-04 01:55:00,39.7,39.7,30.35,SE,129,2.5,2.5,100,0.00,,CLR,0.00,VWS V14.01,2013-05-04 05:55:00,
2013-05-04 02:01:00,39.8,39.8,30.35,SE,129,2.5,2.5,100,0.00,,CLR,0.00,VWS V14.01,2013-05-04 06:01:00,
2013-05-04 02:07:00,39.6,39.6,30.34,SE,129,2.5,2.5,100,0.00,,CLR,0.00,VWS V14.01,2013-05-04 06:07:00,
2013-05-04 02:13:00,39.5,39.5,30.34,SE,129,2.5,2.5,100,0.00,,CLR,0.00,VWS V14.01,2013-05-04 06:13:00,
2013-05-04 02:19:00,39.4,39.4,30.34,SE,129,2.5,2.5,100,0.00,,CLR,0.00,VWS V14.01,2013-05-04 06:19:00,
2013-05-04 02:25:00,39.4,39.4,30.34,SE,129,2.5,2.5,100,0.00,,CLR,0.00,VWS V14.01,2013-05-04 06:25:00,
2013-05-04 02:31:00,39.4,39.4,30.34,SE,129,2.5,2.5,100,0.00,,CLR,0.00,VWS V14.01,2013-05-04 06:31:00,
2013-05-04 02:37:00,39.6,39.6,30.34,SE,129,2.5,2.5,100,0.00,,CLR,0.00,VWS V14.01,2013-05-04 06:37:00,
2013-05-04 02:43:00,39.2,39.2,30.34,SE,129,2.5,2.5,100,0.00,,CLR,0.00,VWS V14.01,2013-05-04 06:43:00,
2013-05-04 02:49:00,39.2,39.2,30.34,SE,129,2.5,2.5,100,0.00,,CLR,0.00,VWS V14.01,2013-05-04 06:49:00,
2013-05-04 02:55:00,38.9,38.9,30.34,SE,129,2.5,2.5,100,0.00,,CLR,0.00,VWS V14.01,2013-05-04 06:55:00,
2013-05-04 03:01:00,39.0,39.0,30.34,SE,129,2.5,2.5,100,0.00,,CLR,0.00,VWS V14.01,2013-05-04 07:01:00,
2013-05-04 03:07:00,38.5,38.5,30.34,SE,129,2.5,2.5,100,0.00,,CLR,0.00,VWS V14.01,2013-05-04 07:07:00,
2013-05-04 03:13:00,38.7,38.7,30.34,SE,129,2.5,2.5,100,0.00,,CLR,0.00,VWS V14.01,2013-05-04 07:13:00,
2013-05-04 03:19:00,39.0,39.0,30.34,SE,129,2.5,2.5,100,0.00,,CLR,0.00,VWS V14.01,2013-05-04 07:19:00,
2013-05-04 03:25:00,38.9,38.9,30.34,SE,129,2.5,2.5,100,0.00,,CLR,0.00,VWS V14.01,2013-05-04 07:25:00,
2013-05-04 03:31:00,38.7,38.7,30.34,SE,129,2.5,2.5,100,0.00,,CLR,0.00,VWS V14.01,2013-05-04 07:31:00,
2013-05-04 03:37:00,39.1,39.1,30.33,SE,129,2.5,2.5,100,0.00,,CLR,0.00,VWS V14.01,2013-05-04 07:37:00,
2013-05-04 03:43:00,39.5,39.5,30.33,SE,129,2.5,2.5,100,0.00,,CLR,0.00,VWS V14.01,2013-05-04 07:43:00,
2013-05-04 03:49:00,39.6,39.6,30.33,SE,129,2.5,2.5,100,0.00,,CLR,0.00,VWS V14.01,2013-05-04 07:49:00,
2013-05-04 03:55:00,39.8,39.8,30.33,SE,129,2.5,2.5,100,0.00,,CLR,0.00,VWS V14.01,2013-05-04 07:55:00,
2013-05-04 04:01:00,39.9,39.9,30.33,SE,129,2.5,2.5,100,0.00,,CLR,0.00,VWS V14.01,2013-05-04 08:01:00,
2013-05-04 04:07:00,39.7,39.7,30.33,SE,129,2.5,2.5,100,0.00,,CLR,0.00,VWS V14.01,2013-05-04 08:07:00,
2013-05-04 04:13:00,39.4,39.4,30.33,SE,129,2.5,2.5,100,0.00,,CLR,0.00,VWS V14.01,2013-05-04 08:13:00,
2013-05-04 04:19:00,39.3,39.3,30.33,SE,129,2.5,2.5,100,0.00,,CLR,0.00,VWS V14.01,2013-05-04 08:19:00,
2013-05-04 04:25:00,39.6,39.6,30.33,SE,129,2.5,2.5,100,0.00,,CLR,0.00,VWS V14.01,2013-05-04 08:25:00,
2013-05-04 04:31:00,39.4,39.4,30.33,SE,129,2.5,2.5,100,0.00,,CLR,0.00,VWS V14.01,2013-05-04 08:31:00,
2013-05-04 04:37:00,39.6,39.6,30.33,SE,129,2.5,2.5,100,0.00,,CLR,0.00,VWS V14.01,2013-05-04 08:37:00,
2013-05-04 04:43:00,39.5,39.5,30.33,SE,129,2.5,2.5,100,0.00,,CLR,0.00,VWS V14.01,2013-05-04 08:43:00,
2013-05-04 04:49:00,39.9,39.9,30.33,SE,129,2.5,2.5,100,0.00,,CLR,0.00,VWS V14.01,2013-05-04 08:49:00,
2013-05-04 04:55:00,39.9,39.9,30.33,SE,129,2.5,2.5,100,0.00,,CLR,0.00,VWS V14.01,2013-05-04 08:55:00,
2013-05-04 05:01:00,39.9,39.9,30.33,SE,129,2.5,2.5,100,0.00,,FEW250,0.00,VWS V14.01,2013-05-04 09:01:00,
2013-05-04 05:07:00,39.8,39.8,30.33,SE,129,2.5,2.5,100,0.00,,FEW250,0.00,VWS V14.01,2013-05-04 09:07:00,
2013-05-04 05:13:00,40.0,40.0,30.33,SE,129,2.5,2.5,100,0.00,,FEW250,0.00,VWS V14.01,2013-05-04 09:13:00,
2013-05-04 05:19:00,40.2,40.2,30.33,SE,129,2.5,2.5,100,0.00,,FEW250,0.00,VWS V14.01,2013-05-04 09:19:00,
2013-05-04 05:25:00,40.2,40.2,30.33,SE,129,2.5,2.5,100,0.00,,FEW250,0.00,VWS V14.01,2013-05-04 09:25:00,
2013-05-04 05:31:00,40.2,40.2,30.33,SE,129,2.5,2.5,100,0.00,,FEW250,0.00,VWS V14.01,2013-05-04 09:31:00,
2013-05-04 05:37:00,40.4,40.4,30.33,SE,129,2.5,2.5,100,0.00,,FEW250,0.00,VWS V14.01,2013-05-04 09:37:00,
2013-05-04 05:43:00,40.5,40.5,30.34,SE,129,2.5,2.5,100,0.00,,FEW250,0.00,VWS V14.01,2013-05-04 09:43:00,
2013-05-04 05:49:00,40.8,40.8,30.34,SE,129,2.5,2.5,100,0.00,,FEW250,0.00,VWS V14.01,2013-05-04 09:49:00,
2013-05-04 05:55:00,40.8,40.8,30.34,SE,129,2.5,2.5,100,0.00,,FEW250,0.00,VWS V14.01,2013-05-04 09:55:00,
2013-05-04 06:01:00,41.0,41.0,30.34,SE,129,2.5,2.5,100,0.00,,CLR,0.00,VWS V14.01,2013-05-04 10:01:00,
2013-05-04 06:07:00,41.3,41.3,30.34,SE,129,2.5,2.5,100,0.00,,CLR,0.00,VWS V14.01,2013-05-04 10:07:00,
2013-05-04 06:13:00,41.8,41.8,30.34,SE,129,2.5,2.5,100,0.00,,CLR,0.00,VWS V14.01,2013-05-04 10:13:00,
2013-05-04 06:19:00,42.3,42.3,30.34,SSE,166,3.9,5.6,100,0.00,,CLR,0.00,VWS V14.01,2013-05-04 10:19:00,
2013-05-04 06:25:00,42.7,42.7,30.35,SE,141,2.5,2.5,100,0.00,,CLR,0.00,VWS V14.01,2013-05-04 10:25:00,
2013-05-04 06:31:00,43.3,43.3,30.35,SE,141,2.5,2.5,100,0.00,,CLR,0.00,VWS V14.01,2013-05-04 10:31:00,
2013-05-04 06:37:00,43.8,43.8,30.34,East,86,3.7,6.0,100,0.00,,CLR,0.00,VWS V14.01,2013-05-04 10:37:00,
2013-05-04 06:43:00,44.5,44.5,30.35,SE,141,2.5,2.5,100,0.00,,CLR,0.00,VWS V14.01,2013-05-04 10:43:00,
2013-05-04 06:49:00,45.0,45.0,30.35,ENE,70,2.5,2.5,100,0.00,,CLR,0.00,VWS V14.01,2013-05-04 10:49:00,
2013-05-04 06:55:00,45.4,45.4,30.35,East,89,2.5,2.5,100,0.00,,CLR,0.00,VWS V14.01,2013-05-04 10:55:00,
2013-05-04 07:01:00,45.8,45.8,30.35,ENE,60,2.5,4.6,100,0.00,,CLR,0.00,VWS V14.01,2013-05-04 11:01:00,
2013-05-04 07:07:00,46.2,46.2,30.35,East,97,5.9,5.9,100,0.00,,CLR,0.00,VWS V14.01,2013-05-04 11:07:00,
2013-05-04 07:13:00,46.4,46.4,30.35,ESE,103,2.8,5.9,100,0.00,,CLR,0.00,VWS V14.01,2013-05-04 11:13:00,
2013-05-04 07:19:00,46.8,46.8,30.35,ESE,104,5.0,7.7,100,0.00,,CLR,0.00,VWS V14.01,2013-05-04 11:19:00,
2013-05-04 07:25:00,47.2,47.2,30.35,ESE,107,4.1,8.5,100,0.00,,CLR,0.00,VWS V14.01,2013-05-04 11:25:00,
2013-05-04 07:31:00,47.9,47.9,30.35,East,97,2.5,6.4,100,0.00,,CLR,0.00,VWS V14.01,2013-05-04 11:31:00,
2013-05-04 07:37:00,47.7,47.7,30.35,ESE,107,5.6,8.1,100,0.00,,CLR,0.00,VWS V14.01,2013-05-04 11:37:00,
2013-05-04 07:43:00,48.3,48.3,30.35,South,179,9.0,12.1,100,0.00,,CLR,0.00,VWS V14.01,2013-05-04 11:43:00,
2013-05-04 07:49:00,49.2,49.2,30.35,SSE,163,2.5,10.9,100,0.00,,CLR,0.00,VWS V14.01,2013-05-04 11:49:00,
2013-05-04 07:57:00,48.7,48.7,30.35,ENE,66,5.7,9.5,100,0.00,,CLR,0.00,VWS V14.01,2013-05-04 11:57:00,
2013-05-04 08:03:00,49.6,49.3,30.35,East,84,5.4,6.7,99,0.00,,CLR,0.00,VWS V14.01,2013-05-04 12:03:00,
2013-05-04 08:11:00,50.1,49.6,30.35,SE,129,5.9,9.3,98,0.00,,CLR,0.00,VWS V14.01,2013-05-04 12:11:00,
2013-05-04 08:17:00,50.6,49.9,30.35,NE,53,2.5,2.5,98,0.00,,CLR,0.00,VWS V14.01,2013-05-04 12:17:00,
2013-05-04 08:23:00,51.6,49.4,30.35,East,84,6.4,8.5,92,0.00,,CLR,0.00,VWS V14.01,2013-05-04 12:23:00,
2013-05-04 08:31:00,51.7,50.2,30.35,SE,146,5.4,10.0,94,0.00,,CLR,0.00,VWS V14.01,2013-05-04 12:31:00,
2013-05-04 08:39:00,53.4,50.9,30.36,SSE,165,6.5,10.9,91,0.00,,CLR,0.00,VWS V14.01,2013-05-04 12:39:00,
2013-05-04 08:45:00,54.5,50.1,30.36,SSE,166,6.4,9.2,85,0.00,,CLR,0.00,VWS V14.01,2013-05-04 12:45:00,
2013-05-04 08:51:00,54.2,49.6,30.36,ENE,68,2.9,8.4,84,0.00,,BKN013,0.00,VWS V14.01,2013-05-04 12:51:00,
2013-05-04 08:57:00,53.9,50.3,30.36,NE,56,3.2,5.5,88,0.00,,BKN013,0.00,VWS V14.01,2013-05-04 12:57:00,
2013-05-04 09:03:00,54.4,49.7,30.36,ENE,72,8.7,10.3,84,0.00,,BKN013,0.00,VWS V14.01,2013-05-04 13:03:00,
2013-05-04 09:09:00,55.3,50.3,30.36,ESE,117,6.0,9.3,83,0.00,,BKN013,0.00,VWS V14.01,2013-05-04 13:09:00,
2013-05-04 09:15:00,55.0,48.5,30.37,East,96,7.7,9.7,78,0.00,,SCT011,0.00,VWS V14.01,2013-05-04 13:15:00,
2013-05-04 09:21:00,55.8,50.1,30.37,SSE,158,9.1,13.1,81,0.00,,SCT011,0.00,VWS V14.01,2013-05-04 13:21:00,
2013-05-04 09:27:00,55.4,48.3,30.36,SE,135,6.4,7.7,77,0.00,,SCT011,0.00,VWS V14.01,2013-05-04 13:27:00,
2013-05-04 09:33:00,53.5,48.2,30.36,ENE,69,4.9,10.4,82,0.00,,SCT011,0.00,VWS V14.01,2013-05-04 13:33:00,
2013-05-04 09:39:00,56.3,47.7,30.37,SE,125,7.0,13.3,73,0.00,,SCT011,0.00,VWS V14.01,2013-05-04 13:39:00,
2013-05-04 09:45:00,57.3,47.0,30.37,South,180,9.3,16.4,68,0.00,,SCT011,0.00,VWS V14.01,2013-05-04 13:45:00,
2013-05-04 09:51:00,57.6,48.1,30.37,ENE,65,7.7,13.1,71,0.00,,SCT011,0.00,VWS V14.01,2013-05-04 13:51:00,
2013-05-04 09:57:00,57.1,48.8,30.37,SE,128,5.5,8.9,74,0.00,,SCT011,0.00,VWS V14.01,2013-05-04 13:57:00,
2013-05-04 10:03:00,56.7,46.5,30.37,East,100,5.6,8.9,69,0.00,,CLR,0.00,VWS V14.01,2013-05-04 14:03:00,
2013-05-04 10:09:00,54.5,47.5,30.37,ENE,60,5.5,10.3,77,0.00,,CLR,0.00,VWS V14.01,2013-05-04 14:09:00,
2013-05-04 10:15:00,55.2,47.5,30.37,ESE,107,6.5,11.0,75,0.00,,CLR,0.00,VWS V14.01,2013-05-04 14:15:00,
2013-05-04 10:21:00,53.9,46.6,30.37,East,79,7.7,10.5,76,0.00,,CLR,0.00,VWS V14.01,2013-05-04 14:21:00,
2013-05-04 10:27:00,54.8,46.1,30.37,East,87,7.7,10.5,72,0.00,,CLR,0.00,VWS V14.01,2013-05-04 14:27:00,
2013-05-04 10:33:00,56.4,46.3,30.37,East,79,7.6,8.9,69,0.00,,CLR,0.00,VWS V14.01,2013-05-04 14:33:00,
2013-05-04 10:39:00,56.9,47.3,30.37,NE,56,5.4,9.5,70,0.00,,CLR,0.00,VWS V14.01,2013-05-04 14:39:00,
2013-05-04 10:45:00,56.4,47.3,30.37,East,89,9.6,11.6,72,0.00,,CLR,0.00,VWS V14.01,2013-05-04 14:45:00,
2013-05-04 10:51:00,54.7,47.2,30.37,ENE,70,8.5,9.8,76,0.00,,CLR,0.00,VWS V14.01,2013-05-04 14:51:00,
2013-05-04 10:57:00,55.9,46.7,30.37,ESE,110,7.6,8.8,71,0.00,,CLR,0.00,VWS V14.01,2013-05-04 14:57:00,
2013-05-04 11:03:00,56.7,47.7,30.37,NNE,14,6.8,8.3,72,0.00,,CLR,0.00,VWS V14.01,2013-05-04 15:03:00,
2013-05-04 11:09:00,55.0,45.3,30.37,North,6,9.4,11.9,70,0.00,,CLR,0.00,VWS V14.01,2013-05-04 15:09:00,
2013-05-04 11:15:00,56.8,46.7,30.38,East,83,3.9,8.2,69,0.00,,CLR,0.00,VWS V14.01,2013-05-04 15:15:00,
2013-05-04 11:21:00,55.9,45.3,30.38,SSE,163,4.4,10.8,67,0.00,,CLR,0.00,VWS V14.01,2013-05-04 15:21:00,
2013-05-04 11:27:00,57.1,45.3,30.38,SSE,156,9.1,17.5,65,0.00,,CLR,0.00,VWS V14.01,2013-05-04 15:27:00,
2013-05-04 11:33:00,58.3,43.8,30.37,SE,139,7.5,16.1,58,0.00,,CLR,0.00,VWS V14.01,2013-05-04 15:33:00,
2013-05-04 11:39:00,56.2,44.6,30.38,NE,38,4.3,8.6,65,0.00,,CLR,0.00,VWS V14.01,2013-05-04 15:39:00,
2013-05-04 11:45:00,58.3,43.4,30.37,SE,128,9.6,12.2,58,0.00,,CLR,0.00,VWS V14.01,2013-05-04 15:45:00,
2013-05-04 11:51:00,56.6,45.9,30.38,SSE,153,8.2,16.5,67,0.00,,CLR,0.00,VWS V14.01,2013-05-04 15:51:00,
2013-05-04 11:57:00,56.6,44.7,30.37,ESE,120,7.6,10.0,64,0.00,,CLR,0.00,VWS V14.01,2013-05-04 15:57:00,
2013-05-04 12:03:00,56.7,44.0,30.37,SSE,155,8.9,12.1,62,0.00,,CLR,0.00,VWS V14.01,2013-05-04 16:03:00,
2013-05-04 12:09:00,59.5,44.7,30.37,ESE,122,5.0,9.6,58,0.00,,CLR,0.00,VWS V14.01,2013-05-04 16:09:00,
2013-05-04 12:15:00,60.8,43.8,30.37,SSE,165,6.5,12.0,54,0.00,,CLR,0.00,VWS V14.01,2013-05-04 16:15:00,
2013-05-04 12:21:00,58.4,43.4,30.37,South,183,6.3,11.3,57,0.00,,CLR,0.00,VWS V14.01,2013-05-04 16:21:00,
2013-05-04 12:27:00,56.6,43.2,30.37,East,79,5.9,8.3,61,0.00,,CLR,0.00,VWS V14.01,2013-05-04 16:27:00,
2013-05-04 12:33:00,55.9,44.4,30.37,East,86,6.2,14.9,65,0.00,,CLR,0.00,VWS V14.01,2013-05-04 16:33:00,
2013-05-04 12:39:00,59.2,44.2,30.37,East,80,5.9,11.2,57,0.00,,CLR,0.00,VWS V14.01,2013-05-04 16:39:00,
2013-05-04 12:45:00,60.2,43.4,30.37,ENE,76,3.4,11.9,54,0.00,,CLR,0.00,VWS V14.01,2013-05-04 16:45:00,
2013-05-04 12:51:00,56.5,43.9,30.37,East,90,6.6,9.7,63,0.00,,CLR,0.00,VWS V14.01,2013-05-04 16:51:00,
2013-05-04 12:57:00,55.7,44.1,30.37,ENE,70,5.6,7.8,65,0.00,,CLR,0.00,VWS V14.01,2013-05-04 16:57:00,
2013-05-04 13:03:00,57.7,42.6,30.37,East,80,4.8,11.9,57,0.00,,FEW020,0.00,VWS V14.01,2013-05-04 17:03:00,
2013-05-04 13:09:00,56.6,45.1,30.37,SSE,167,10.0,12.6,65,0.00,,FEW020,0.00,VWS V14.01,2013-05-04 17:09:00,
2013-05-04 13:15:00,57.4,44.4,30.37,South,190,5.4,10.1,62,0.00,,FEW020,0.00,VWS V14.01,2013-05-04 17:15:00,